Location: Newark
(35.7127°N, 139.7618°E)
Time: 20:07:00
(UTC+00:00)

X-37B - Visible Passes

Search period start: 11 August 2020 00:00
Search period end: 21 August 2020 00:00
Orbit: 385 x 388 km, 45.0° (Epoch: 09 August)

Date Brightness Start Highest point End Pass type
(mag) Time Alt. Az. Time Alt. Az. Time Alt. Az.
11 Aug 2.8 10:16:33 10° WNW 10:19:16 25° NNW 10:21:59 10° NE visible
11 Aug 3.4 11:54:40 10° NW 11:56:36 15° N 11:56:50 15° N visible
12 Aug 3.4 10:55:40 10° NW 10:57:45 16° N 10:59:49 10° NE visible
12 Aug 4.2 12:32:51 10° NW 12:33:00 11° NNW 12:33:00 11° NNW visible
13 Aug 3.2 11:34:17 10° NW 11:36:20 16° N 11:36:51 15° NNE visible
14 Aug 3.3 10:35:32 10° NW 10:37:28 15° N 10:39:25 10° NE visible
14 Aug 3.8 12:12:09 10° NW 12:12:57 15° NNW 12:12:57 15° NNW visible
15 Aug 2.8 11:13:43 10° NW 11:16:02 18° NNE 11:16:45 17° NNE visible
16 Aug 3.1 10:15:09 10° NW 10:17:12 16° N 10:19:14 10° NE visible
16 Aug 3.1 11:51:27 10° NW 11:52:50 21° NNW 11:52:50 21° NNW visible
17 Aug 2.3 10:53:01 10° NW 10:55:42 24° NNE 10:56:40 21° NE visible
18 Aug 2.8 09:54:34 10° NW 09:56:54 18° NNE 09:59:13 10° ENE visible
18 Aug 2.2 11:30:46 10° NW 11:32:48 35° NW 11:32:48 35° NW visible
19 Aug 1.6 10:32:18 10° NW 10:35:17 36° NNE 10:36:42 23° ENE visible
20 Aug 1.2 11:10:14 10° WNW 11:12:55 52° WSW 11:12:55 52° WSW visible
